Dewpoint
51 51 50 51 51 50 49 49 49 49 50 50 50 50 54 56 57 55 53 53 52 52 52 52 52 52 48 34 32 38 42 43 44 45 45 44 42 39 38 36 37 37 37 40 42 43 43
51 51 51 51 51 51 50 49 49 49 49 49 49 49 53 55 57 54 53 53 52 52 52 52 51 53 44 32 36 38 40 41 45 44 43 44 43 44 42 37 37 37 39 39 40 41 42
53 52 52 52 51 51 50 50 50 49 49 49 49 49 51 55 57 55 54 52 52 52 52 52 52 48 42 35 35 37 40 41 44 45 45 47 47 45 42 38 39 38 37 40 39 38 39
52 52 52 53 52 52 50 50 50 49 49 49 49 49 48 51 53 55 54 52 52 52 52 53 52 46 36 35 36 37 39 40 44 45 47 47 49 47 43 40 38 36 38 36 37 38 40
51 51 51 51 51 51 52 51 50 50 50 49 49 49 48 49 51 53 54 52 51 52 53 51 48 43 31 38 34 38 39 39 41 43 47 46 48 44 40 37 35 32 29 36 32 39 39
51 51 50 50 51 51 51 51 52 52 50 49 49 49 48 51 52 52 53 52 51 50 48 44 40 36 34 29 36 38 39 42 41 40 40 41 42 41 38 37 33 29 27 27 30 36 35
50 50 50 50 49 51 50 51 51 52 52 50 49 48 48 52 54 53 50 46 40 39 37 33 31 30 30 34 38 38 39 40 40 38 36 38 38 35 32 33 33 31 29 25 24 35 34
50 49 50 49 49 49 49 49 50 51 51 51 51 49 48 50 53 51 48 41 37 41 33 35 33 32 34 37 35 36 40 36 35 33 34 34 33 34 36 34 33 32 28 26 32 34 35
50 49 48 49 49 49 49 49 49 50 50 50 51 49 47 48 51 50 45 41 44 42 35 35 34 32 32 37 32 34 38 36 33 31 31 32 33 34 33 32 30 30 29 28 29 34 35
49 49 47 48 49 48 48 49 49 49 49 50 50 50 47 46 48 46 42 42 43 43 37 32 33 34 36 37 32 36 39 39 33 32 31 29 31 32 32 30 29 27 31 31 31 31 26
49 47 48 48 48 48 49 49 49 49 50 50 49 50 47 45 46 45 44 43 43 40 27 31 34 37 37 34 32 34 40 37 31 29 32 31 31 32 29 28 32 30 34 31 31 29 27
48 46 47 47 49 50 49 48 48 49 49 49 50 49 46 44 49 48 48 44 41 33 26 31 34 32 32 32 31 34 34 37 36 31 29 29 32 33 33 34 33 34 33 30 30 30 27
48 46 47 48 49 49 49 47 48 48 48 49 49 49 45 43 42 49 46 40 33 30 29 31 31 31 28 28 29 30 29 27 27 29 29 27 25 28 34 32 32 32 31 29 26 29 22
47 46 47 47 48 47 47 49 49 48 49 49 48 47 47 46 47 49 43 35 30 30 29 31 32 31 26 27 28 29 27 24 28 25 27 24 24 26 29 31 31 31 30 28 22 19 18
47 45 47 47 48 47 47 48 48 49 48 46 48 48 48 48 50 49 37 33 31 31 28 30 30 25 26 27 28 28 23 22 26 26 23 21 19 25 29 32 32 33 32 32 29 22 19
48 45 46 47 48 47 47 47 47 45 46 47 43 44 45 51 49 44 36 32 31 30 31 31 20 25 18 25 24 24 20 28 28 30 29 25 24 26 27 30 33 31 34 29 32 22 15
48 46 46 47 47 47 46 47 47 46 46 48 45 40 46 50 48 38 34 32 31 32 33 29 23 21 20 22 23 20 21 29 29 31 30 27 25 24 24 26 25 27 29 30 32 31 26
48 46 46 47 47 47 46 47 47 47 46 47 44 36 47 49 37 38 34 32 35 33 33 32 28 26 23 25 23 22 22 26 31 33 26 30 26 24 17 25 29 28 27 30 26 28 27
48 45 45 46 47 47 47 47 46 47 47 42 40 39 48 47 35 35 33 32 34 31 32 30 27 29 28 25 20 24 26 28 31 32 29 28 28 23 20 27 28 25 25 25 31 32 29
48 45 44 45 46 48 47 47 47 46 46 44 40 35 40 42 40 36 30 29 30 34 32 31 28 28 25 23 24 22 24 27 29 30 31 30 33 26 17 22 24 23 22 20 27 28 24
49 45 44 45 46 47 47 46 47 45 45 43 38 36 38 35 37 36 32 31 29 27 32 31 28 26 23 19 21 20 23 24 24 25 25 24 25 22 20 20 21 20 21 20 27 26 27
49 45 44 45 45 46 46 47 47 45 43 38 37 37 35 38 36 33 33 31 29 27 29 29 27 28 26 19 16 14 19 20 17 21 24 27 27 26 23 22 22 18 17 18 22 24 25
48 45 43 44 45 45 46 47 46 46 47 38 41 40 37 37 36 32 31 30 28 29 26 25 28 26 25 23 23 22 22 23 26 26 23 24 27 26 20 22 27 25 24 26 28 28 30
48 45 43 44 45 45 45 47 47 47 47 42 42 40 38 34 33 31 31 31 29 27 23 23 22 21 25 24 23 23 23 24 25 25 26 22 26 27 24 25 19 26 30 31 28 31 33
49 45 42 43 44 44 45 46 46 47 46 46 44 38 36 28 26 30 32 29 26 25 24 25 25 24 25 27 23 21 25 26 25 25 23 26 25 25 23 15 18 23 27 28 27 29 36
48 45 42 44 44 45 45 45 46 47 47 47 45 42 39 35 27 27 30 28 25 23 23 25 26 27 30 23 21 21 14 22 21 23 28 25 24 26 24 16 8 23 30 32 32 25 35
48 46 43 44 44 45 45 46 46 48 48 47 45 45 39 33 29 28 26 25 24 22 22 24 25 25 28 22 21 20 14 22 18 19 20 24 24 22 18 18 12 25 28 32 24 28 34
49 46 43 44 44 44 45 46 45 47 49 49 45 46 40 34 31 30 30 24 24 24 20 26 24 26 23 23 25 23 17 20 19 19 19 18 19 19 18 19 14 27 30 27 30 33 33
49 46 44 44 45 44 45 45 45 47 46 45 41 45 42 36 32 31 31 31 31 30 27 27 24 24 25 22 28 29 22 27 21 12 22 18 17 20 19 19 26 28 31 32 33 32 33
Lifted_Index
11 11 11 10 10 10 10 10 10 10 9 9 9 8 5 3 1 0 1 3 5 6 6 7 7 7 9 10 10 8 7 6 5 4 2 1 1 1 0 0 0 0 0 0 1 1 2
11 11 10 10 10 10 10 10 10 9 9 9 9 8 6 3 1 0 1 3 4 5 6 6 7 7 9 10 10 8 7 6 5 4 2 1 1 0 0 0 0 0 0 0 1 2 2
10 10 10 10 9 9 9 9 9 9 9 9 8 8 7 4 2 1 1 3 4 5 6 6 7 7 9 10 10 8 7 6 5 4 3 2 1 0 0 1 1 1 1 1 2 2 3
10 10 10 9 9 9 9 9 9 8 8 8 8 8 7 5 3 2 2 3 4 5 5 6 6 8 9 10 10 8 7 6 5 4 4 3 2 1 1 2 2 1 1 1 2 2 2
10 10 10 10 9 9 9 8 8 8 8 7 7 7 7 6 4 3 2 3 5 5 5 6 7 8 10 10 10 8 7 6 5 5 5 4 3 2 2 2 2 2 2 1 1 1 1
11 11 11 10 10 9 9 8 7 7 7 6 6 7 6 5 4 4 3 4 5 5 6 6 7 9 10 10 9 8 8 7 6 5 5 5 4 3 4 3 2 2 2 2 2 1 1
11 11 11 11 10 9 9 8 7 6 6 6 6 6 6 5 3 3 4 4 4 4 5 6 8 9 10 10 9 8 8 7 6 6 5 5 4 4 4 4 3 2 2 2 2 2 3
12 12 11 11 10 9 9 8 7 6 5 5 5 6 6 5 4 4 4 4 4 4 4 5 7 9 10 10 9 8 8 7 6 6 6 5 5 5 5 4 3 2 2 2 3 3 4
12 12 12 11 10 9 8 8 7 6 5 4 4 5 6 5 5 4 4 5 5 5 3 4 7 9 9 9 9 9 8 7 7 6 6 6 5 5 5 5 4 3 3 3 3 3 4
12 12 12 11 10 9 8 7 6 5 4 4 4 4 5 6 5 5 5 6 6 5 3 4 6 8 9 9 9 9 8 8 7 7 7 6 6 6 6 5 4 4 3 3 3 3 3
12 12 11 10 9 8 7 7 6 5 3 2 3 4 5 5 5 5 5 6 6 5 3 4 6 8 8 8 9 9 9 8 8 8 8 7 7 7 6 5 4 4 3 3 3 3 3
12 12 11 10 9 8 7 6 5 4 2 1 2 3 4 5 5 4 5 6 5 3 3 5 7 8 8 8 9 9 9 9 8 8 8 8 8 8 7 5 4 3 2 2 2 2 2
12 12 11 10 9 7 7 6 4 2 1 1 2 3 4 4 4 4 5 5 4 3 4 5 6 7 8 8 8 9 9 9 9 8 8 8 8 8 7 5 4 2 1 1 1 1 1
12 12 11 10 9 7 6 5 3 1 1 1 2 3 4 3 3 4 5 5 3 3 4 6 6 7 7 8 8 9 9 9 9 9 8 7 7 8 7 5 3 1 0 -0 -0 0 0
12 12 11 10 8 7 6 4 2 1 1 2 3 3 3 3 3 4 5 4 4 4 5 5 6 7 7 8 8 9 9 9 9 9 8 7 7 8 8 6 3 1 0 -0 -0 -0 -0
12 12 11 10 8 7 5 3 2 2 2 3 3 3 3 3 3 4 5 4 4 5 5 6 6 7 7 7 8 9 9 9 9 9 9 8 8 8 8 6 4 2 1 0 0 -0 -0
12 12 11 10 8 6 4 2 1 2 2 2 2 3 3 3 3 4 4 4 4 5 6 6 7 7 7 8 8 9 9 10 10 10 10 9 9 9 9 8 5 3 2 1 1 0 -0
12 12 11 10 8 6 4 2 1 2 2 3 2 2 3 3 3 4 4 4 4 5 6 7 7 8 8 8 9 9 10 10 10 10 10 10 9 8 8 9 7 5 3 2 1 1 0
12 12 12 10 8 5 3 2 2 2 3 3 3 3 3 3 3 4 4 4 4 5 6 7 8 8 9 9 9 10 10 11 11 11 11 11 9 7 7 8 8 6 4 3 2 1 0
12 12 12 10 8 5 3 2 2 3 4 4 3 3 4 4 4 4 4 4 4 5 6 7 8 9 9 9 10 10 11 12 12 12 12 11 9 7 7 8 9 8 5 4 3 2 1
12 12 12 10 8 5 4 4 4 5 5 4 4 4 4 4 4 4 5 5 4 5 6 7 8 9 9 9 10 10 11 12 12 12 13 11 10 9 9 10 10 8 6 4 3 2 2
11 12 12 11 8 6 5 5 6 6 6 6 6 5 6 5 5 5 5 5 5 5 7 8 8 9 10 10 11 11 12 12 12 12 12 11 10 9 9 10 10 8 6 5 4 3 3
11 12 12 11 9 7 7 7 7 7 7 7 8 7 7 6 5 5 5 5 6 7 8 9 9 10 11 12 13 13 13 13 13 12 12 11 10 8 7 8 8 7 6 6 4 3 3
11 12 13 12 10 9 9 8 8 8 9 9 9 9 7 6 5 6 6 6 6 8 9 10 11 11 12 13 13 13 13 13 12 12 12 11 10 8 6 6 6 6 7 6 5 4 4
12 13 14 13 12 11 10 10 10 10 11 10 10 9 7 6 6 7 7 7 7 8 10 11 12 13 13 13 12 10 10 10 10 11 12 12 10 8 5 4 5 6 7 7 6 5 5
12 13 14 14 14 13 13 12 12 12 12 11 11 10 8 7 8 8 7 7 8 9 10 11 12 13 13 12 10 8 7 8 8 9 10 11 10 8 5 4 5 6 7 7 6 6 5
13 13 15 15 15 15 14 14 14 13 12 11 11 10 9 9 9 9 8 8 9 9 10 11 12 13 13 11 9 8 8 8 7 8 8 9 8 7 5 4 5 7 8 7 6 6 6
13 14 15 16 16 16 15 15 15 14 12 11 10 10 10 9 9 10 10 10 10 10 11 11 12 12 12 11 10 9 9 9 8 8 8 8 7 6 6 5 6 8 8 7 7 7 7
13 14 15 16 16 16 16 16 15 14 12 10 10 10 10 10 10 11 11 11 11 11 11 11 12 12 12 11 11 10 10 10 9 9 9 8 7 7 7 7 8 9 8 7 7 7 8